Regional Weather Roundup
Issued by NWS

Home | Current Version | Previous Version | Text Only | Print | Product List | Glossary Off
Versions: 1 2 3 4 5 6 7 8 9 10 11 12 13 14 15 16 17 18 19 20 21 22 23 24 25 26 27 28 29 30 31 32 33 34 35 36 37 38 39 40 41 42 43 44 45 46 47 48 49 50

000
ASUS43 KOAX 251802
RWRNE

WEATHER ROUNDUP FOR NEBRASKA
NATIONAL WEATHER SERVICE OMAHA NE
100 PM CDT MON SEP 25 2017

NOTES: SATELLITE DATA IS BEING USED TO AUGMENT CLOUD COVER ABOVE
       12000 FEET.
       "FAIR" INDICATES FEW OR NO CLOUDS BELOW 12,000 FEET WITH NO
       SIGNIFICANT WEATHER AND/OR OBSTRUCTIONS TO VISIBILITY.


NEZ001>004-019>022-054>056-251900-
NEBRASKA PANHANDLE

CITY           SKY/WX    TMP DP  RH WIND       PRES   REMARKS
SCOTTSBLUFF    CLOUDY    50  41  71 CALM      30.12F
6HR MIN TEMP:  43; 6HR MAX TEMP:  50;

ALLIANCE       CLOUDY    48  41  76 N6        30.10F
6HR MIN TEMP:  42; 6HR MAX TEMP:  48;

CHADRON        CLOUDY    49  40  71 CALM      30.13F
6HR MIN TEMP:  40; 6HR MAX TEMP:  49;

GORDON         CLOUDY    47  42  81 N8        30.11F
6HR MIN TEMP:  43; 6HR MAX TEMP:  48;

KIMBALL        CLOUDY    45  42  88 NE5       30.11F
SIDNEY         CLOUDY    48  43  82 N10       30.09F
6HR MIN TEMP:  43; 6HR MAX TEMP:  50; 6HR PCP: TRACE;

$$

NEZ057>060-069>072-079>082-251900-
SOUTHWEST NEBRASKA

CITY           SKY/WX    TMP DP  RH WIND       PRES   REMARKS
NORTH PLATTE   CLOUDY    51  47  86 N13       30.03F
6HR MIN TEMP:  49; 6HR MAX TEMP:  51; 6HR PCP: TRACE;

IMPERIAL       CLOUDY    51  46  83 N14       30.04F
6HR MIN TEMP:  48; 6HR MAX TEMP:  52; 6HR PCP:  0.08;

LEXINGTON      LGT RAIN  53  49  85 N14       30.01F
MCCOOK         CLOUDY    52  50  93 N14       30.03S
6HR MIN TEMP:  49; 6HR MAX TEMP:  52; 6HR PCP:  0.12;

OGALLALA       CLOUDY    52  47  81 N9        30.06F
$$

NEZ005>010-023>029-035>040-094-251900-
NORTH CENTRAL NEBRASKA

CITY           SKY/WX    TMP DP  RH WIND       PRES   REMARKS
VALENTINE      CLOUDY    50  45  83 N12       30.10F
6HR MIN TEMP:  47; 6HR MAX TEMP:  51;

AINSWORTH      CLOUDY    48  47  99 N14G20    30.08F
BROKEN BOW       N/A     52  47  83 N13G25    30.02F
6HR MIN TEMP:  49; 6HR MAX TEMP:  52; 6HR PCP: TRACE;

O`NEILL        CLOUDY    50  50 100 N15       30.04F FOG
ORD            CLOUDY    52  47  83 N14       30.03R
6HR MIN TEMP:  50; 6HR MAX TEMP:  52; 6HR PCP:  0.02;

THEDFORD       CLOUDY    50  46  87 N12G17    30.08S
$$

NEZ041-046>049-061>064-073>077-083>087-251900-
SOUTH CENTRAL NEBRASKA

CITY           SKY/WX    TMP DP  RH WIND       PRES   REMARKS
GRAND ISLAND   CLOUDY    53  53 100 N17       29.97F
6HR MIN TEMP:  52; 6HR MAX TEMP:  53; 6HR PCP:  0.62;

AURORA         LGT RAIN  53  53 100 N8        29.99R
HASTINGS       CLOUDY    54  52  93 N13       29.99S
6HR MIN TEMP:  52; 6HR MAX TEMP:  54; 6HR PCP:  0.56;

HEBRON         LGT RAIN  60  59  98 NE5       29.98R
HOLDREGE       CLOUDY    53  50  90 N17       29.99S
KEARNEY        CLOUDY    53  51  93 N20       30.00F
YORK           LGT RAIN  55  55 100 N15G21    29.97F
$$

NEZ011>018-030>034-042>045-251900-
NORTHEAST NEBRASKA

CITY           SKY/WX    TMP DP  RH WIND       PRES   REMARKS
NORFOLK        LGT RAIN  54  53  97 N10       30.01S
6HR MIN TEMP:  52; 6HR MAX TEMP:  55; 6HR PCP:  0.36;

ALBION         LGT RAIN  54  52  94 N12       29.98F
BLAIR          LGT RAIN  63  63  98 NW8       29.94F
COLUMBUS       RAIN      56  55  97 NW8       30.01S
FREMONT        LGT RAIN  60  59  97 NW9       29.97S
TEKAMAH        LGT RAIN  61  59  93 N12       29.96F
6HR MIN TEMP:  58; 6HR MAX TEMP:  61; 6HR PCP:  0.91;

WAYNE          LGT RAIN  56  54  91 N10       29.98F
$$

NEZ050>053-065>068-078-088>093-251900-
SOUTHEAST NEBRASKA

CITY           SKY/WX    TMP DP  RH WIND       PRES   REMARKS
LINCOLN        LGT RAIN  62  60  93 NW10      29.98R
6HR MIN TEMP:  58; 6HR MAX TEMP:  63; 6HR PCP:  0.45;

OMAHA EPPLEY   LGT RAIN  66  63  90 N6        29.93F
6HR MIN TEMP:  59; 6HR MAX TEMP:  67; 6HR PCP:  0.39;

BEATRICE       RAIN      62  62  98 NW12      29.96S
FALLS CITY     PTSUNNY   81  68  64 NW8       29.88F
6HR MIN TEMP:  65; 6HR MAX TEMP:  84;

NEBRASKA CITY  PTSUNNY   73  69  87 N3        29.93F
PLATTSMOUTH    CLOUDY    70  68  96 E6        29.93S
$$

NEZ044-045-051>053-067-251900-
OMAHA AREA

CITY           SKY/WX    TMP DP  RH WIND       PRES   REMARKS
OMAHA EPPLEY   LGT RAIN  66  63  90 N6        29.93F
6HR MIN TEMP:  59; 6HR MAX TEMP:  67; 6HR PCP:  0.39;

BLAIR          LGT RAIN  63  63  98 NW8       29.94F
FREMONT        LGT RAIN  60  59  97 NW9       29.97S
MILLARD        LGT RAIN  67  65  94 N3        29.94S
OFFUTT AFB     CLOUDY    70  66  86 NE10      29.92F
PLATTSMOUTH    CLOUDY    70  68  96 E6        29.93S
WAHOO          RAIN      60  59  97 NW10      29.97S
$$




USA.gov is the U.S. government's official web portal to all federal, state and local government web resources and services.